When you browse on this site, cookies collect data to enhance your experience and personalize the content and advertising you see.
Visit our Privacy Policy to learn more. By continuing to use the site, you agree to this use of cookies and data.
  • In Hungary
  • List of Countries
  • For 7 days
  • Water Temperature
  • Weather Map
  • News
  • Weather Widgets
  • user-avatar
    Login

    Hourly Weather Phin

    Today, 8 April, Wednesday

    Time Temperature Precipitation Wind Pressure Humidity
    00:00 +23°C° 0 mm 2 mps 736 mmHg 85%
    01:00 +23°C° 0 mm 2 mps 735 mmHg 87%
    02:00 +23°C° 0 mm 2 mps 735 mmHg 87%
    03:00 +21°C° 0 mm 2 mps 735 mmHg 87%
    04:00 +21°C° 0 mm 2 mps 735 mmHg 87%
    05:00 +23°C° 0 mm 2 mps 735 mmHg 85%
    06:00 +23°C° 0 mm 2 mps 736 mmHg 82%
    07:00 +24°C° 0 mm 2 mps 736 mmHg 80%
    08:00 +27°C° 0 mm 2 mps 737 mmHg 70%
    09:00 +29°C° 0 mm 2 mps 737 mmHg 61%
    10:00 +32°C° 0 mm 2 mps 738 mmHg 51%
    11:00 +34°C° 0 mm 1 mps 737 mmHg 46%
    12:00 +36°C° 0 mm 1 mps 737 mmHg 41%
    13:00 +39°C° 0 mm 1 mps 736 mmHg 36%
    14:00 +36°C° 0 mm 1 mps 736 mmHg 40%
    15:00 +36°C° 0 mm 2 mps 735 mmHg 44%
    16:00 +34°C° 0 mm 2 mps 735 mmHg 48%
    17:00 +31°C° 0.4 mm 2 mps 735 mmHg 57%
    18:00 +28°C° 0.4 mm 3 mps 735 mmHg 67%
    19:00 +26°C° 0.4 mm 3 mps 735 mmHg 76%
    20:00 +25°C° 0 mm 3 mps 736 mmHg 78%
    21:00 +25°C° 0 mm 3 mps 737 mmHg 80%
    22:00 +24°C° 0 mm 3 mps 737 mmHg 82%
    23:00 +24°C° 0 mm 2 mps 737 mmHg 82%

    Tomorrow, 9 April, Thursday

    Time Temperature Precipitation Wind Pressure Humidity
    00:00 +23°C° 0 mm 2 mps 737 mmHg 83%
    01:00 +23°C° 0 mm 2 mps 736 mmHg 84%
    02:00 +23°C° 0 mm 2 mps 736 mmHg 85%
    03:00 +23°C° 0 mm 2 mps 736 mmHg 86%
    04:00 +23°C° 0 mm 2 mps 736 mmHg 86%
    05:00 +23°C° 0 mm 2 mps 736 mmHg 84%
    06:00 +24°C° 0 mm 2 mps 737 mmHg 82%
    07:00 +24°C° 0 mm 2 mps 737 mmHg 79%
    08:00 +27°C° 0 mm 2 mps 737 mmHg 70%
    09:00 +30°C° 0 mm 2 mps 738 mmHg 60%
    10:00 +32°C° 0 mm 2 mps 738 mmHg 50%
    11:00 +35°C° 0 mm 2 mps 738 mmHg 45%
    12:00 +36°C° 0 mm 2 mps 737 mmHg 41%
    13:00 +38°C° 0 mm 2 mps 736 mmHg 36%
    14:00 +37°C° 0 mm 2 mps 736 mmHg 39%
    15:00 +36°C° 0 mm 2 mps 735 mmHg 43%
    16:00 +35°C° 0 mm 3 mps 735 mmHg 46%
    17:00 +33°C° 0 mm 3 mps 735 mmHg 54%
    18:00 +30°C° 0 mm 3 mps 736 mmHg 62%
    19:00 +28°C° 0 mm 3 mps 736 mmHg 71%
    20:00 +27°C° 0 mm 3 mps 736 mmHg 74%
    21:00 +26°C° 0 mm 3 mps 737 mmHg 77%
    22:00 +26°C° 0 mm 2 mps 737 mmHg 81%
    23:00 +25°C° 0 mm 2 mps 737 mmHg 82%

    Day after tomorrow, 10 April, Friday

    Time Temperature Precipitation Wind Pressure Humidity
    00:00 +25°C° 0 mm 2 mps 737 mmHg 84%
    01:00 +24°C° 0 mm 2 mps 736 mmHg 86%
    02:00 +24°C° 0 mm 2 mps 736 mmHg 87%
    03:00 +24°C° 0 mm 1 mps 736 mmHg 88%
    04:00 +24°C° 0 mm 1 mps 736 mmHg 89%
    05:00 +24°C° 0 mm 1 mps 737 mmHg 86%
    06:00 +25°C° 0 mm 1 mps 737 mmHg 83%
    07:00 +26°C° 0 mm 1 mps 737 mmHg 80%
    08:00 +29°C° 0 mm 1 mps 738 mmHg 68%
    09:00 +32°C° 0 mm 1 mps 738 mmHg 56%
    10:00 +35°C° 0 mm 1 mps 738 mmHg 44%
    11:00 +37°C° 0 mm 1 mps 738 mmHg 40%
    12:00 +40°C° 0 mm 1 mps 737 mmHg 35%
    13:00 +41°C° 0 mm 1 mps 736 mmHg 30%
    14:00 +39°C° 0 mm 1 mps 736 mmHg 34%
    15:00 +37°C° 0 mm 1 mps 735 mmHg 39%
    16:00 +35°C° 0 mm 1 mps 734 mmHg 43%
    17:00 +32°C° 0.6 mm 1 mps 735 mmHg 55%
    18:00 +30°C° 0.6 mm 1 mps 735 mmHg 67%
    19:00 +27°C° 0.6 mm 2 mps 735 mmHg 79%
    20:00 +27°C° 0.1 mm 1 mps 736 mmHg 82%
    21:00 +27°C° 0.1 mm 1 mps 736 mmHg 84%
    22:00 +26°C° 0.1 mm 1 mps 737 mmHg 87%
    23:00 +26°C° 0 mm 1 mps 736 mmHg 88%

    11 April, Saturday

    Time Temperature Precipitation Wind Pressure Humidity
    00:00 +26°C° 0 mm 1 mps 736 mmHg 90%
    01:00 +25°C° 0 mm 1 mps 736 mmHg 91%
    02:00 +25°C° 0 mm 1 mps 735 mmHg 92%
    03:00 +25°C° 0 mm 1 mps 735 mmHg 92%
    04:00 +25°C° 0 mm 1 mps 735 mmHg 93%
    05:00 +25°C° 0 mm 1 mps 735 mmHg 89%
    06:00 +24°C° 0 mm 0 mps 736 mmHg 85%
    07:00 +25°C° 0 mm 0 mps 736 mmHg 81%
    08:00 +30°C° 0 mm 1 mps 737 mmHg 69%
    09:00 +33°C° 0 mm 1 mps 737 mmHg 57%
    10:00 +35°C° 0 mm 1 mps 737 mmHg 45%
    11:00 +37°C° 0 mm 2 mps 737 mmHg 42%
    12:00 +38°C° 0 mm 2 mps 736 mmHg 38%
    13:00 +39°C° 0 mm 2 mps 735 mmHg 35%
    14:00 +38°C° 0 mm 2 mps 734 mmHg 37%
    15:00 +38°C° 0 mm 2 mps 734 mmHg 38%
    16:00 +37°C° 0 mm 2 mps 733 mmHg 39%
    17:00 +35°C° 0 mm 1 mps 734 mmHg 44%
    18:00 +33°C° 0 mm 1 mps 734 mmHg 50%
    19:00 +29°C° 0 mm 0 mps 734 mmHg 55%
    20:00 +28°C° 0 mm 0 mps 734 mmHg 60%
    21:00 +29°C° 0 mm 1 mps 735 mmHg 65%
    22:00 +28°C° 0 mm 1 mps 735 mmHg 70%
    23:00 +28°C° 0 mm 1 mps 735 mmHg 74%

    12 April, Sunday

    Time Temperature Precipitation Wind Pressure Humidity
    00:00 +27°C° 0 mm 1 mps 734 mmHg 78%
    01:00 +27°C° 0 mm 1 mps 734 mmHg 82%
    02:00 +26°C° 0 mm 1 mps 734 mmHg 83%
    03:00 +26°C° 0 mm 1 mps 734 mmHg 84%
    04:00 +26°C° 0 mm 1 mps 734 mmHg 85%
    05:00 +26°C° 0 mm 1 mps 735 mmHg 82%
    06:00 +27°C° 0 mm 1 mps 735 mmHg 78%
    07:00 +27°C° 0 mm 2 mps 736 mmHg 75%
    08:00 +30°C° 0 mm 2 mps 736 mmHg 67%
    09:00 +33°C° 0 mm 3 mps 737 mmHg 59%
    10:00 +35°C° 0 mm 3 mps 737 mmHg 51%
    11:00 +35°C° 0.1 mm 3 mps 737 mmHg 49%
    12:00 +36°C° 0.1 mm 3 mps 736 mmHg 47%
    13:00 +37°C° 0.1 mm 4 mps 736 mmHg 44%
    14:00 +35°C° 0.3 mm 4 mps 735 mmHg 49%
    15:00 +34°C° 0.3 mm 5 mps 735 mmHg 53%
    16:00 +32°C° 0.3 mm 5 mps 735 mmHg 57%
    17:00 +30°C° 0 mm 5 mps 735 mmHg 62%
    18:00 +28°C° 0 mm 4 mps 736 mmHg 67%
    19:00 +26°C° 0 mm 4 mps 736 mmHg 72%
    20:00 +25°C° 0 mm 4 mps 737 mmHg 73%
    21:00 +25°C° 0 mm 3 mps 737 mmHg 74%
    22:00 +24°C° 0 mm 3 mps 738 mmHg 75%
    23:00 +24°C° 0 mm 3 mps 738 mmHg 76%

    13 April, Monday

    Time Temperature Precipitation Wind Pressure Humidity
    00:00 +24°C° 0 mm 3 mps 737 mmHg 77%
    01:00 +22°C° 0 mm 3 mps 737 mmHg 79%
    02:00 +22°C° 0 mm 3 mps 737 mmHg 78%
    03:00 +22°C° 0 mm 3 mps 736 mmHg 78%
    04:00 +22°C° 0 mm 3 mps 736 mmHg 78%
    05:00 +24°C° 0 mm 3 mps 737 mmHg 76%
    06:00 +24°C° 0 mm 3 mps 737 mmHg 74%
    07:00 +25°C° 0 mm 4 mps 737 mmHg 72%
    08:00 +26°C° 0 mm 4 mps 738 mmHg 65%
    09:00 +28°C° 0 mm 4 mps 738 mmHg 59%
    10:00 +30°C° 0 mm 4 mps 739 mmHg 53%
    11:00 +30°C° 0 mm 5 mps 738 mmHg 51%
    12:00 +32°C° 0 mm 5 mps 738 mmHg 49%
    13:00 +32°C° 0 mm 5 mps 737 mmHg 47%
    14:00 +30°C° 0 mm 5 mps 737 mmHg 49%
    15:00 +30°C° 0 mm 5 mps 736 mmHg 50%
    16:00 +29°C° 0 mm 4 mps 736 mmHg 52%
    17:00 +27°C° 0 mm 4 mps 736 mmHg 59%
    18:00 +25°C° 0 mm 4 mps 736 mmHg 66%
    19:00 +22°C° 0 mm 3 mps 736 mmHg 73%
    20:00 +22°C° 0 mm 3 mps 737 mmHg 75%
    21:00 +22°C° 0 mm 3 mps 737 mmHg 76%
    22:00 +21°C° 0 mm 3 mps 738 mmHg 78%
    23:00 +21°C° 0 mm 2 mps 737 mmHg 79%
    Show more